Data supplied by UK-AIR on 1/4/2011
All Data GMT hour ending 
Status: R =Ratified P=Provisional,P*=As supplied
,,London Harrow Stanmore,,,,,,,,,,,,,,,,,,,,,,,
Date,time,"Non-volatile PM<sub>2.5</sub> (Hourly measured)",status,unit,"PM<sub>2.5</sub> particulate matter (Hourly measured)",status,unit,"Volatile PM2.5 (Hourly measured)",status,unit
 
01-01-2010,01:00,6,R,ugm-3 (TEOM FDMS),7,R,ugm-3 (TEOM FDMS),1,R,ugm-3 (TEOM FDMS)
01-01-2010,02:00,6,R,ugm-3 (TEOM FDMS),6,R,ugm-3 (TEOM FDMS),0,R,ugm-3 (TEOM FDMS)
01-01-2010,03:00,6,R,ugm-3 (TEOM FDMS),8,R,ugm-3 (TEOM FDMS),2,R,ugm-3 (TEOM FDMS)
01-01-2010,04:00,5,R,ugm-3 (TEOM FDMS),6,R,ugm-3 (TEOM FDMS),1,R,ugm-3 (TEOM FDMS)
01-01-2010,05:00,4,R,ugm-3 (TEOM FDMS),5,R,ugm-3 (TEOM FDMS),1,R,ugm-3 (TEOM FDMS)
01-01-2010,06:00,3,R,ugm-3 (TEOM FDMS),3,R,ugm-3 (TEOM FDMS),0,R,ugm-3 (TEOM FDMS)
01-01-2010,07:00,4,R,ugm-3 (TEOM FDMS),4,R,ugm-3 (TEOM FDMS),0,R,ugm-3 (TEOM FDMS)
01-01-2010,08:00,4,R,ugm-3 (TEOM FDMS),4,R,ugm-3 (TEOM FDMS),0,R,ugm-3 (TEOM FDMS)
01-01-2010,09:00,5,R,ugm-3 (TEOM FDMS),3,R,ugm-3 (TEOM FDMS),-2,R,ugm-3 (TEOM FDMS)
01-01-2010,10:00,5,R,ugm-3 (TEOM FDMS),4,R,ugm-3 (TEOM FDMS),-1,R,ugm-3 (TEOM FDMS)
01-01-2010,11:00,5,R,ugm-3 (TEOM FDMS),4,R,ugm-3 (TEOM FDMS),-1,R,ugm-3 (TEOM FDMS)
01-01-2010,12:00,5,R,ugm-3 (TEOM FDMS),5,R,ugm-3 (TEOM FDMS),0,R,ugm-3 (TEOM FDMS)
01-01-2010,13:00,5,R,ugm-3 (TEOM FDMS),7,R,ugm-3 (TEOM FDMS),2,R,ugm-3 (TEOM FDMS)
01-01-2010,14:00,4,R,ugm-3 (TEOM FDMS),5,R,ugm-3 (TEOM FDMS),1,R,ugm-3 (TEOM FDMS)
01-01-2010,15:00,4,R,ugm-3 (TEOM FDMS),5,R,ugm-3 (TEOM FDMS),1,R,ugm-3 (TEOM FDMS)
01-01-2010,16:00,5,R,ugm-3 (TEOM FDMS),6,R,ugm-3 (TEOM FDMS),1,R,ugm-3 (TEOM FDMS)
01-01-2010,17:00,11,R,ugm-3 (TEOM FDMS),11,R,ugm-3 (TEOM FDMS),0,R,ugm-3 (TEOM FDMS)
01-01-2010,18:00,11,R,ugm-3 (TEOM FDMS),13,R,ugm-3 (TEOM FDMS),2,R,ugm-3 (TEOM FDMS)
01-01-2010,19:00,16,R,ugm-3 (TEOM FDMS),19,R,ugm-3 (TEOM FDMS),3,R,ugm-3 (TEOM FDMS)
01-01-2010,20:00,16,R,ugm-3 (TEOM FDMS),19,R,ugm-3 (TEOM FDMS),3,R,ugm-3 (TEOM FDMS)
01-01-2010,21:00,19,R,ugm-3 (TEOM FDMS),23,R,ugm-3 (TEOM FDMS),4,R,ugm-3 (TEOM FDMS)
01-01-2010,22:00,21,R,ugm-3 (TEOM FDMS),24,R,ugm-3 (TEOM FDMS),3,R,ugm-3 (TEOM FDMS)
01-01-2010,23:00,23,R,ugm-3 (TEOM FDMS),27,R,ugm-3 (TEOM FDMS),4,R,ugm-3 (TEOM FDMS)
01-01-2010,24:00,23,R,ugm-3 (TEOM FDMS),26,R,ugm-3 (TEOM FDMS),3,R,ugm-3 (TEOM FDMS)
02-01-2010,01:00,21,R,ugm-3 (TEOM FDMS),25,R,ugm-3 (TEOM FDMS),4,R,ugm-3 (TEOM FDMS)
02-01-2010,02:00,17,R,ugm-3 (TEOM FDMS),22,R,ugm-3 (TEOM FDMS),5,R,ugm-3 (TEOM FDMS)
02-01-2010,03:00,14,R,ugm-3 (TEOM FDMS),17,R,ugm-3 (TEOM FDMS),3,R,ugm-3 (TEOM FDMS)
02-01-2010,04:00,8,R,ugm-3 (TEOM FDMS),11,R,ugm-3 (TEOM FDMS),3,R,ugm-3 (TEOM FDMS)
02-01-2010,05:00,6,R,ugm-3 (TEOM FDMS),9,R,ugm-3 (TEOM FDMS),3,R,ugm-3 (TEOM FDMS)
02-01-2010,06:00,7,R,ugm-3 (TEOM FDMS),10,R,ugm-3 (TEOM FDMS),3,R,ugm-3 (TEOM FDMS)
02-01-2010,07:00,6,R,ugm-3 (TEOM FDMS),8,R,ugm-3 (TEOM FDMS),2,R,ugm-3 (TEOM FDMS)
02-01-2010,08:00,5,R,ugm-3 (TEOM FDMS),8,R,ugm-3 (TEOM FDMS),3,R,ugm-3 (TEOM FDMS)
02-01-2010,09:00,6,R,ugm-3 (TEOM FDMS),8,R,ugm-3 (TEOM FDMS),2,R,ugm-3 (TEOM FDMS)
02-01-2010,10:00,6,R,ugm-3 (TEOM FDMS),7,R,ugm-3 (TEOM FDMS),1,R,ugm-3 (TEOM FDMS)
02-01-2010,11:00,4,R,ugm-3 (TEOM FDMS),4,R,ugm-3 (TEOM FDMS),0,R,ugm-3 (TEOM FDMS)
02-01-2010,12:00,2,R,ugm-3 (TEOM FDMS),3,R,ugm-3 (TEOM FDMS),1,R,ugm-3 (TEOM FDMS)
02-01-2010,13:00,4,R,ugm-3 (TEOM FDMS),6,R,ugm-3 (TEOM FDMS),2,R,ugm-3 (TEOM FDMS)
02-01-2010,14:00,3,R,ugm-3 (TEOM FDMS),4,R,ugm-3 (TEOM FDMS),1,R,ugm-3 (TEOM FDMS)
02-01-2010,15:00,2,R,ugm-3 (TEOM FDMS),5,R,ugm-3 (TEOM FDMS),3,R,ugm-3 (TEOM FDMS)
02-01-2010,16:00,3,R,ugm-3 (TEOM FDMS),5,R,ugm-3 (TEOM FDMS),2,R,ugm-3 (TEOM FDMS)
02-01-2010,17:00,5,R,ugm-3 (TEOM FDMS),7,R,ugm-3 (TEOM FDMS),2,R,ugm-3 (TEOM FDMS)
02-01-2010,18:00,9,R,ugm-3 (TEOM FDMS),9,R,ugm-3 (TEOM FDMS),0,R,ugm-3 (TEOM FDMS)
02-01-2010,19:00,12,R,ugm-3 (TEOM FDMS),14,R,ugm-3 (TEOM FDMS),2,R,ugm-3 (TEOM FDMS)
02-01-2010,20:00,15,R,ugm-3 (TEOM FDMS),16,R,ugm-3 (TEOM FDMS),1,R,ugm-3 (TEOM FDMS)
02-01-2010,21:00,17,R,ugm-3 (TEOM FDMS),19,R,ugm-3 (TEOM FDMS),2,R,ugm-3 (TEOM FDMS)
02-01-2010,22:00,12,R,ugm-3 (TEOM FDMS),13,R,ugm-3 (TEOM FDMS),1,R,ugm-3 (TEOM FDMS)
02-01-2010,23:00,10,R,ugm-3 (TEOM FDMS),10,R,ugm-3 (TEOM FDMS),0,R,ugm-3 (TEOM FDMS)
02-01-2010,24:00,10,R,ugm-3 (TEOM FDMS),12,R,ugm-3 (TEOM FDMS),2,R,ugm-3 (TEOM FDMS)
03-01-2010,01:00,10,R,ugm-3 (TEOM FDMS),14,R,ugm-3 (TEOM FDMS),4,R,ugm-3 (TEOM FDMS)
03-01-2010,02:00,11,R,ugm-3 (TEOM FDMS),14,R,ugm-3 (TEOM FDMS),3,R,ugm-3 (TEOM FDMS)
03-01-2010,03:00,16,R,ugm-3 (TEOM FDMS),19,R,ugm-3 (TEOM FDMS),3,R,ugm-3 (TEOM FDMS)
03-01-2010,04:00,12,R,ugm-3 (TEOM FDMS),16,R,ugm-3 (TEOM FDMS),4,R,ugm-3 (TEOM FDMS)
03-01-2010,05:00,7,R,ugm-3 (TEOM FDMS),10,R,ugm-3 (TEOM FDMS),3,R,ugm-3 (TEOM FDMS)
03-01-2010,06:00,8,R,ugm-3 (TEOM FDMS),12,R,ugm-3 (TEOM FDMS),4,R,ugm-3 (TEOM FDMS)
03-01-2010,07:00,9,R,ugm-3 (TEOM FDMS),12,R,ugm-3 (TEOM FDMS),3,R,ugm-3 (TEOM FDMS)
03-01-2010,08:00,9,R,ugm-3 (TEOM FDMS),12,R,ugm-3 (TEOM FDMS),3,R,ugm-3 (TEOM FDMS)
03-01-2010,09:00,8,R,ugm-3 (TEOM FDMS),10,R,ugm-3 (TEOM FDMS),2,R,ugm-3 (TEOM FDMS)
03-01-2010,10:00,7,R,ugm-3 (TEOM FDMS),9,R,ugm-3 (TEOM FDMS),2,R,ugm-3 (TEOM FDMS)
03-01-2010,11:00,6,R,ugm-3 (TEOM FDMS),9,R,ugm-3 (TEOM FDMS),3,R,ugm-3 (TEOM FDMS)
03-01-2010,12:00,5,R,ugm-3 (TEOM FDMS),8,R,ugm-3 (TEOM FDMS),3,R,ugm-3 (TEOM FDMS)
03-01-2010,13:00,2,R,ugm-3 (TEOM FDMS),6,R,ugm-3 (TEOM FDMS),4,R,ugm-3 (TEOM FDMS)
03-01-2010,14:00,2,R,ugm-3 (TEOM FDMS),6,R,ugm-3 (TEOM FDMS),4,R,ugm-3 (TEOM FDMS)
03-01-2010,15:00,3,R,ugm-3 (TEOM FDMS),5,R,ugm-3 (TEOM FDMS),2,R,ugm-3 (TEOM FDMS)
03-01-2010,16:00,5,R,ugm-3 (TEOM FDMS),8,R,ugm-3 (TEOM FDMS),3,R,ugm-3 (TEOM FDMS)
03-01-2010,17:00,9,R,ugm-3 (TEOM FDMS),11,R,ugm-3 (TEOM FDMS),2,R,ugm-3 (TEOM FDMS)
03-01-2010,18:00,11,R,ugm-3 (TEOM FDMS),12,R,ugm-3 (TEOM FDMS),1,R,ugm-3 (TEOM FDMS)
03-01-2010,19:00,10,R,ugm-3 (TEOM FDMS),11,R,ugm-3 (TEOM FDMS),1,R,ugm-3 (TEOM FDMS)
03-01-2010,20:00,13,R,ugm-3 (TEOM FDMS),15,R,ugm-3 (TEOM FDMS),2,R,ugm-3 (TEOM FDMS)
03-01-2010,21:00,12,R,ugm-3 (TEOM FDMS),15,R,ugm-3 (TEOM FDMS),3,R,ugm-3 (TEOM FDMS)
03-01-2010,22:00,13,R,ugm-3 (TEOM FDMS),16,R,ugm-3 (TEOM FDMS),3,R,ugm-3 (TEOM FDMS)
03-01-2010,23:00,14,R,ugm-3 (TEOM FDMS),18,R,ugm-3 (TEOM FDMS),4,R,ugm-3 (TEOM FDMS)
03-01-2010,24:00,13,R,ugm-3 (TEOM FDMS),17,R,ugm-3 (TEOM FDMS),4,R,ugm-3 (TEOM FDMS)
04-01-2010,01:00,15,R,ugm-3 (TEOM FDMS),19,R,ugm-3 (TEOM FDMS),4,R,ugm-3 (TEOM FDMS)
04-01-2010,02:00,15,R,ugm-3 (TEOM FDMS),19,R,ugm-3 (TEOM FDMS),4,R,ugm-3 (TEOM FDMS)
04-01-2010,03:00,14,R,ugm-3 (TEOM FDMS),17,R,ugm-3 (TEOM FDMS),3,R,ugm-3 (TEOM FDMS)
04-01-2010,04:00,11,R,ugm-3 (TEOM FDMS),16,R,ugm-3 (TEOM FDMS),5,R,ugm-3 (TEOM FDMS)
04-01-2010,05:00,12,R,ugm-3 (TEOM FDMS),18,R,ugm-3 (TEOM FDMS),6,R,ugm-3 (TEOM FDMS)
04-01-2010,06:00,11,R,ugm-3 (TEOM FDMS),17,R,ugm-3 (TEOM FDMS),6,R,ugm-3 (TEOM FDMS)
04-01-2010,07:00,11,R,ugm-3 (TEOM FDMS),16,R,ugm-3 (TEOM FDMS),5,R,ugm-3 (TEOM FDMS)
04-01-2010,08:00,14,R,ugm-3 (TEOM FDMS),20,R,ugm-3 (TEOM FDMS),6,R,ugm-3 (TEOM FDMS)
04-01-2010,09:00,48,R,ugm-3 (TEOM FDMS),52,R,ugm-3 (TEOM FDMS),4,R,ugm-3 (TEOM FDMS)
04-01-2010,10:00,22,R,ugm-3 (TEOM FDMS),26,R,ugm-3 (TEOM FDMS),4,R,ugm-3 (TEOM FDMS)
04-01-2010,11:00,17,R,ugm-3 (TEOM FDMS),23,R,ugm-3 (TEOM FDMS),6,R,ugm-3 (TEOM FDMS)
04-01-2010,12:00,19,R,ugm-3 (TEOM FDMS),25,R,ugm-3 (TEOM FDMS),6,R,ugm-3 (TEOM FDMS)
04-01-2010,13:00,17,R,ugm-3 (TEOM FDMS),24,R,ugm-3 (TEOM FDMS),7,R,ugm-3 (TEOM FDMS)
04-01-2010,14:00,13,R,ugm-3 (TEOM FDMS),20,R,ugm-3 (TEOM FDMS),7,R,ugm-3 (TEOM FDMS)
04-01-2010,15:00,14,R,ugm-3 (TEOM FDMS),21,R,ugm-3 (TEOM FDMS),7,R,ugm-3 (TEOM FDMS)
04-01-2010,16:00,21,R,ugm-3 (TEOM FDMS),27,R,ugm-3 (TEOM FDMS),6,R,ugm-3 (TEOM FDMS)
04-01-2010,17:00,19,R,ugm-3 (TEOM FDMS),24,R,ugm-3 (TEOM FDMS),5,R,ugm-3 (TEOM FDMS)
04-01-2010,18:00,20,R,ugm-3 (TEOM FDMS),27,R,ugm-3 (TEOM FDMS),7,R,ugm-3 (TEOM FDMS)
04-01-2010,19:00,22,R,ugm-3 (TEOM FDMS),28,R,ugm-3 (TEOM FDMS),6,R,ugm-3 (TEOM FDMS)
04-01-2010,20:00,27,R,ugm-3 (TEOM FDMS),33,R,ugm-3 (TEOM FDMS),6,R,ugm-3 (TEOM FDMS)
04-01-2010,21:00,30,R,ugm-3 (TEOM FDMS),38,R,ugm-3 (TEOM FDMS),8,R,ugm-3 (TEOM FDMS)
04-01-2010,22:00,30,R,ugm-3 (TEOM FDMS),37,R,ugm-3 (TEOM FDMS),7,R,ugm-3 (TEOM FDMS)
04-01-2010,23:00,30,R,ugm-3 (TEOM FDMS),37,R,ugm-3 (TEOM FDMS),7,R,ugm-3 (TEOM FDMS)
04-01-2010,24:00,28,R,ugm-3 (TEOM FDMS),37,R,ugm-3 (TEOM FDMS),9,R,ugm-3 (TEOM FDMS)
05-01-2010,01:00,28,R,ugm-3 (TEOM FDMS),37,R,ugm-3 (TEOM FDMS),9,R,ugm-3 (TEOM FDMS)
05-01-2010,02:00,27,R,ugm-3 (TEOM FDMS),36,R,ugm-3 (TEOM FDMS),9,R,ugm-3 (TEOM FDMS)
05-01-2010,03:00,28,R,ugm-3 (TEOM FDMS),35,R,ugm-3 (TEOM FDMS),7,R,ugm-3 (TEOM FDMS)
05-01-2010,04:00,26,R,ugm-3 (TEOM FDMS),33,R,ugm-3 (TEOM FDMS),7,R,ugm-3 (TEOM FDMS)
05-01-2010,05:00,21,R,ugm-3 (TEOM FDMS),29,R,ugm-3 (TEOM FDMS),8,R,ugm-3 (TEOM FDMS)
05-01-2010,06:00,17,R,ugm-3 (TEOM FDMS),24,R,ugm-3 (TEOM FDMS),7,R,ugm-3 (TEOM FDMS)
05-01-2010,07:00,16,R,ugm-3 (TEOM FDMS),22,R,ugm-3 (TEOM FDMS),6,R,ugm-3 (TEOM FDMS)
05-01-2010,08:00,19,R,ugm-3 (TEOM FDMS),25,R,ugm-3 (TEOM FDMS),6,R,ugm-3 (TEOM FDMS)
05-01-2010,09:00,21,R,ugm-3 (TEOM FDMS),27,R,ugm-3 (TEOM FDMS),6,R,ugm-3 (TEOM FDMS)
05-01-2010,10:00,25,R,ugm-3 (TEOM FDMS),33,R,ugm-3 (TEOM FDMS),8,R,ugm-3 (TEOM FDMS)
05-01-2010,11:00,20,R,ugm-3 (TEOM FDMS),27,R,ugm-3 (TEOM FDMS),7,R,ugm-3 (TEOM FDMS)
05-01-2010,12:00,17,R,ugm-3 (TEOM FDMS),26,R,ugm-3 (TEOM FDMS),9,R,ugm-3 (TEOM FDMS)
05-01-2010,13:00,17,R,ugm-3 (TEOM FDMS),25,R,ugm-3 (TEOM FDMS),8,R,ugm-3 (TEOM FDMS)
05-01-2010,14:00,17,R,ugm-3 (TEOM FDMS),26,R,ugm-3 (TEOM FDMS),9,R,ugm-3 (TEOM FDMS)
05-01-2010,15:00,19,R,ugm-3 (TEOM FDMS),27,R,ugm-3 (TEOM FDMS),8,R,ugm-3 (TEOM FDMS)
05-01-2010,16:00,23,R,ugm-3 (TEOM FDMS),29,R,ugm-3 (TEOM FDMS),6,R,ugm-3 (TEOM FDMS)
05-01-2010,17:00,19,R,ugm-3 (TEOM FDMS),26,R,ugm-3 (TEOM FDMS),7,R,ugm-3 (TEOM FDMS)
05-01-2010,18:00,24,R,ugm-3 (TEOM FDMS),30,R,ugm-3 (TEOM FDMS),6,R,ugm-3 (TEOM FDMS)
05-01-2010,19:00,29,R,ugm-3 (TEOM FDMS),35,R,ugm-3 (TEOM FDMS),6,R,ugm-3 (TEOM FDMS)
05-01-2010,20:00,28,R,ugm-3 (TEOM FDMS),34,R,ugm-3 (TEOM FDMS),6,R,ugm-3 (TEOM FDMS)
05-01-2010,21:00,27,R,ugm-3 (TEOM FDMS),33,R,ugm-3 (TEOM FDMS),6,R,ugm-3 (TEOM FDMS)
05-01-2010,22:00,25,R,ugm-3 (TEOM FDMS),31,R,ugm-3 (TEOM FDMS),6,R,ugm-3 (TEOM FDMS)
05-01-2010,23:00,23,R,ugm-3 (TEOM FDMS),28,R,ugm-3 (TEOM FDMS),5,R,ugm-3 (TEOM FDMS)
05-01-2010,24:00,17,R,ugm-3 (TEOM FDMS),22,R,ugm-3 (TEOM FDMS),5,R,ugm-3 (TEOM FDMS)
06-01-2010,01:00,5,R,ugm-3 (TEOM FDMS),10,R,ugm-3 (TEOM FDMS),5,R,ugm-3 (TEOM FDMS)
06-01-2010,02:00,2,R,ugm-3 (TEOM FDMS),7,R,ugm-3 (TEOM FDMS),5,R,ugm-3 (TEOM FDMS)
06-01-2010,03:00,6,R,ugm-3 (TEOM FDMS),10,R,ugm-3 (TEOM FDMS),4,R,ugm-3 (TEOM FDMS)
06-01-2010,04:00,6,R,ugm-3 (TEOM FDMS),9,R,ugm-3 (TEOM FDMS),3,R,ugm-3 (TEOM FDMS)
06-01-2010,05:00,7,R,ugm-3 (TEOM FDMS),10,R,ugm-3 (TEOM FDMS),3,R,ugm-3 (TEOM FDMS)
06-01-2010,06:00,8,R,ugm-3 (TEOM FDMS),11,R,ugm-3 (TEOM FDMS),3,R,ugm-3 (TEOM FDMS)
06-01-2010,07:00,10,R,ugm-3 (TEOM FDMS),14,R,ugm-3 (TEOM FDMS),4,R,ugm-3 (TEOM FDMS)
06-01-2010,08:00,11,R,ugm-3 (TEOM FDMS),15,R,ugm-3 (TEOM FDMS),4,R,ugm-3 (TEOM FDMS)
06-01-2010,09:00,15,R,ugm-3 (TEOM FDMS),18,R,ugm-3 (TEOM FDMS),3,R,ugm-3 (TEOM FDMS)
06-01-2010,10:00,16,R,ugm-3 (TEOM FDMS),20,R,ugm-3 (TEOM FDMS),4,R,ugm-3 (TEOM FDMS)
06-01-2010,11:00,12,R,ugm-3 (TEOM FDMS),17,R,ugm-3 (TEOM FDMS),5,R,ugm-3 (TEOM FDMS)
06-01-2010,12:00,9,R,ugm-3 (TEOM FDMS),15,R,ugm-3 (TEOM FDMS),6,R,ugm-3 (TEOM FDMS)
06-01-2010,13:00,9,R,ugm-3 (TEOM FDMS),15,R,ugm-3 (TEOM FDMS),6,R,ugm-3 (TEOM FDMS)
06-01-2010,14:00,11,R,ugm-3 (TEOM FDMS),16,R,ugm-3 (TEOM FDMS),5,R,ugm-3 (TEOM FDMS)
06-01-2010,15:00,16,R,ugm-3 (TEOM FDMS),21,R,ugm-3 (TEOM FDMS),5,R,ugm-3 (TEOM FDMS)
06-01-2010,16:00,7,R,ugm-3 (TEOM FDMS),10,R,ugm-3 (TEOM FDMS),3,R,ugm-3 (TEOM FDMS)
06-01-2010,17:00,4,R,ugm-3 (TEOM FDMS),5,R,ugm-3 (TEOM FDMS),1,R,ugm-3 (TEOM FDMS)
06-01-2010,18:00,3,R,ugm-3 (TEOM FDMS),5,R,ugm-3 (TEOM FDMS),2,R,ugm-3 (TEOM FDMS)
06-01-2010,19:00,4,R,ugm-3 (TEOM FDMS),6,R,ugm-3 (TEOM FDMS),2,R,ugm-3 (TEOM FDMS)
06-01-2010,20:00,4,R,ugm-3 (TEOM FDMS),5,R,ugm-3 (TEOM FDMS),1,R,ugm-3 (TEOM FDMS)
06-01-2010,21:00,6,R,ugm-3 (TEOM FDMS),8,R,ugm-3 (TEOM FDMS),2,R,ugm-3 (TEOM FDMS)
06-01-2010,22:00,5,R,ugm-3 (TEOM FDMS),7,R,ugm-3 (TEOM FDMS),2,R,ugm-3 (TEOM FDMS)
06-01-2010,23:00,5,R,ugm-3 (TEOM FDMS),7,R,ugm-3 (TEOM FDMS),2,R,ugm-3 (TEOM FDMS)
06-01-2010,24:00,7,R,ugm-3 (TEOM FDMS),10,R,ugm-3 (TEOM FDMS),3,R,ugm-3 (TEOM FDMS)
07-01-2010,01:00,8,R,ugm-3 (TEOM FDMS),11,R,ugm-3 (TEOM FDMS),3,R,ugm-3 (TEOM FDMS)
07-01-2010,02:00,7,R,ugm-3 (TEOM FDMS),10,R,ugm-3 (TEOM FDMS),3,R,ugm-3 (TEOM FDMS)
07-01-2010,03:00,7,R,ugm-3 (TEOM FDMS),11,R,ugm-3 (TEOM FDMS),4,R,ugm-3 (TEOM FDMS)
07-01-2010,04:00,7,R,ugm-3 (TEOM FDMS),11,R,ugm-3 (TEOM FDMS),4,R,ugm-3 (TEOM FDMS)
07-01-2010,05:00,8,R,ugm-3 (TEOM FDMS),12,R,ugm-3 (TEOM FDMS),4,R,ugm-3 (TEOM FDMS)
07-01-2010,06:00,8,R,ugm-3 (TEOM FDMS),13,R,ugm-3 (TEOM FDMS),5,R,ugm-3 (TEOM FDMS)
07-01-2010,07:00,10,R,ugm-3 (TEOM FDMS),15,R,ugm-3 (TEOM FDMS),5,R,ugm-3 (TEOM FDMS)
07-01-2010,08:00,9,R,ugm-3 (TEOM FDMS),14,R,ugm-3 (TEOM FDMS),5,R,ugm-3 (TEOM FDMS)
07-01-2010,09:00,9,R,ugm-3 (TEOM FDMS),14,R,ugm-3 (TEOM FDMS),5,R,ugm-3 (TEOM FDMS)
07-01-2010,10:00,8,R,ugm-3 (TEOM FDMS),13,R,ugm-3 (TEOM FDMS),5,R,ugm-3 (TEOM FDMS)
07-01-2010,11:00,8,R,ugm-3 (TEOM FDMS),14,R,ugm-3 (TEOM FDMS),6,R,ugm-3 (TEOM FDMS)
07-01-2010,12:00,8,R,ugm-3 (TEOM FDMS),12,R,ugm-3 (TEOM FDMS),4,R,ugm-3 (TEOM FDMS)
07-01-2010,13:00,6,R,ugm-3 (TEOM FDMS),10,R,ugm-3 (TEOM FDMS),4,R,ugm-3 (TEOM FDMS)
07-01-2010,14:00,7,R,ugm-3 (TEOM FDMS),10,R,ugm-3 (TEOM FDMS),3,R,ugm-3 (TEOM FDMS)
07-01-2010,15:00,8,R,ugm-3 (TEOM FDMS),11,R,ugm-3 (TEOM FDMS),3,R,ugm-3 (TEOM FDMS)
07-01-2010,16:00,7,R,ugm-3 (TEOM FDMS),8,R,ugm-3 (TEOM FDMS),1,R,ugm-3 (TEOM FDMS)
07-01-2010,17:00,9,R,ugm-3 (TEOM FDMS),11,R,ugm-3 (TEOM FDMS),2,R,ugm-3 (TEOM FDMS)
07-01-2010,18:00,9,R,ugm-3 (TEOM FDMS),10,R,ugm-3 (TEOM FDMS),1,R,ugm-3 (TEOM FDMS)
07-01-2010,19:00,9,R,ugm-3 (TEOM FDMS),11,R,ugm-3 (TEOM FDMS),2,R,ugm-3 (TEOM FDMS)
07-01-2010,20:00,12,R,ugm-3 (TEOM FDMS),14,R,ugm-3 (TEOM FDMS),2,R,ugm-3 (TEOM FDMS)
07-01-2010,21:00,10,R,ugm-3 (TEOM FDMS),12,R,ugm-3 (TEOM FDMS),2,R,ugm-3 (TEOM FDMS)
07-01-2010,22:00,9,R,ugm-3 (TEOM FDMS),10,R,ugm-3 (TEOM FDMS),1,R,ugm-3 (TEOM FDMS)
07-01-2010,23:00,8,R,ugm-3 (TEOM FDMS),10,R,ugm-3 (TEOM FDMS),2,R,ugm-3 (TEOM FDMS)
07-01-2010,24:00,9,R,ugm-3 (TEOM FDMS),11,R,ugm-3 (TEOM FDMS),2,R,ugm-3 (TEOM FDMS)
08-01-2010,01:00,11,R,ugm-3 (TEOM FDMS),13,R,ugm-3 (TEOM FDMS),2,R,ugm-3 (TEOM FDMS)
08-01-2010,02:00,11,R,ugm-3 (TEOM FDMS),14,R,ugm-3 (TEOM FDMS),3,R,ugm-3 (TEOM FDMS)
08-01-2010,03:00,11,R,ugm-3 (TEOM FDMS),14,R,ugm-3 (TEOM FDMS),3,R,ugm-3 (TEOM FDMS)
08-01-2010,04:00,12,R,ugm-3 (TEOM FDMS),16,R,ugm-3 (TEOM FDMS),4,R,ugm-3 (TEOM FDMS)
08-01-2010,05:00,14,R,ugm-3 (TEOM FDMS),18,R,ugm-3 (TEOM FDMS),4,R,ugm-3 (TEOM FDMS)
08-01-2010,06:00,13,R,ugm-3 (TEOM FDMS),18,R,ugm-3 (TEOM FDMS),5,R,ugm-3 (TEOM FDMS)
08-01-2010,07:00,11,R,ugm-3 (TEOM FDMS),16,R,ugm-3 (TEOM FDMS),5,R,ugm-3 (TEOM FDMS)
08-01-2010,08:00,8,R,ugm-3 (TEOM FDMS),11,R,ugm-3 (TEOM FDMS),3,R,ugm-3 (TEOM FDMS)
08-01-2010,09:00,7,R,ugm-3 (TEOM FDMS),11,R,ugm-3 (TEOM FDMS),4,R,ugm-3 (TEOM FDMS)
08-01-2010,10:00,4,R,ugm-3 (TEOM FDMS),8,R,ugm-3 (TEOM FDMS),4,R,ugm-3 (TEOM FDMS)
08-01-2010,11:00,6,R,ugm-3 (TEOM FDMS),9,R,ugm-3 (TEOM FDMS),3,R,ugm-3 (TEOM FDMS)
08-01-2010,12:00,5,R,ugm-3 (TEOM FDMS),8,R,ugm-3 (TEOM FDMS),3,R,ugm-3 (TEOM FDMS)
08-01-2010,13:00,4,R,ugm-3 (TEOM FDMS),7,R,ugm-3 (TEOM FDMS),3,R,ugm-3 (TEOM FDMS)
08-01-2010,14:00,9,R,ugm-3 (TEOM FDMS),12,R,ugm-3 (TEOM FDMS),3,R,ugm-3 (TEOM FDMS)
08-01-2010,15:00,12,R,ugm-3 (TEOM FDMS),15,R,ugm-3 (TEOM FDMS),3,R,ugm-3 (TEOM FDMS)
08-01-2010,16:00,14,R,ugm-3 (TEOM FDMS),18,R,ugm-3 (TEOM FDMS),4,R,ugm-3 (TEOM FDMS)
08-01-2010,17:00,16,R,ugm-3 (TEOM FDMS),20,R,ugm-3 (TEOM FDMS),4,R,ugm-3 (TEOM FDMS)
08-01-2010,18:00,17,R,ugm-3 (TEOM FDMS),22,R,ugm-3 (TEOM FDMS),5,R,ugm-3 (TEOM FDMS)
08-01-2010,19:00,16,R,ugm-3 (TEOM FDMS),21,R,ugm-3 (TEOM FDMS),5,R,ugm-3 (TEOM FDMS)
08-01-2010,20:00,17,R,ugm-3 (TEOM FDMS),22,R,ugm-3 (TEOM FDMS),5,R,ugm-3 (TEOM FDMS)
08-01-2010,21:00,13,R,ugm-3 (TEOM FDMS),17,R,ugm-3 (TEOM FDMS),4,R,ugm-3 (TEOM FDMS)
08-01-2010,22:00,15,R,ugm-3 (TEOM FDMS),21,R,ugm-3 (TEOM FDMS),6,R,ugm-3 (TEOM FDMS)
08-01-2010,23:00,10,R,ugm-3 (TEOM FDMS),16,R,ugm-3 (TEOM FDMS),6,R,ugm-3 (TEOM FDMS)
08-01-2010,24:00,5,R,ugm-3 (TEOM FDMS),10,R,ugm-3 (TEOM FDMS),5,R,ugm-3 (TEOM FDMS)
09-01-2010,01:00,8,R,ugm-3 (TEOM FDMS),13,R,ugm-3 (TEOM FDMS),5,R,ugm-3 (TEOM FDMS)
09-01-2010,02:00,8,R,ugm-3 (TEOM FDMS),12,R,ugm-3 (TEOM FDMS),4,R,ugm-3 (TEOM FDMS)
09-01-2010,03:00,8,R,ugm-3 (TEOM FDMS),11,R,ugm-3 (TEOM FDMS),3,R,ugm-3 (TEOM FDMS)
09-01-2010,04:00,6,R,ugm-3 (TEOM FDMS),11,R,ugm-3 (TEOM FDMS),5,R,ugm-3 (TEOM FDMS)
09-01-2010,05:00,4,R,ugm-3 (TEOM FDMS),9,R,ugm-3 (TEOM FDMS),5,R,ugm-3 (TEOM FDMS)
09-01-2010,06:00,6,R,ugm-3 (TEOM FDMS),8,R,ugm-3 (TEOM FDMS),2,R,ugm-3 (TEOM FDMS)
09-01-2010,07:00,5,R,ugm-3 (TEOM FDMS),8,R,ugm-3 (TEOM FDMS),3,R,ugm-3 (TEOM FDMS)
09-01-2010,08:00,4,R,ugm-3 (TEOM FDMS),8,R,ugm-3 (TEOM FDMS),4,R,ugm-3 (TEOM FDMS)
09-01-2010,09:00,6,R,ugm-3 (TEOM FDMS),9,R,ugm-3 (TEOM FDMS),3,R,ugm-3 (TEOM FDMS)
09-01-2010,10:00,3,R,ugm-3 (TEOM FDMS),6,R,ugm-3 (TEOM FDMS),3,R,ugm-3 (TEOM FDMS)
09-01-2010,11:00,5,R,ugm-3 (TEOM FDMS),8,R,ugm-3 (TEOM FDMS),3,R,ugm-3 (TEOM FDMS)
09-01-2010,12:00,6,R,ugm-3 (TEOM FDMS),8,R,ugm-3 (TEOM FDMS),2,R,ugm-3 (TEOM FDMS)
09-01-2010,13:00,2,R,ugm-3 (TEOM FDMS),6,R,ugm-3 (TEOM FDMS),4,R,ugm-3 (TEOM FDMS)
09-01-2010,14:00,4,R,ugm-3 (TEOM FDMS),7,R,ugm-3 (TEOM FDMS),3,R,ugm-3 (TEOM FDMS)
09-01-2010,15:00,5,R,ugm-3 (TEOM FDMS),8,R,ugm-3 (TEOM FDMS),3,R,ugm-3 (TEOM FDMS)
09-01-2010,16:00,4,R,ugm-3 (TEOM FDMS),6,R,ugm-3 (TEOM FDMS),2,R,ugm-3 (TEOM FDMS)
09-01-2010,17:00,6,R,ugm-3 (TEOM FDMS),7,R,ugm-3 (TEOM FDMS),1,R,ugm-3 (TEOM FDMS)
09-01-2010,18:00,5,R,ugm-3 (TEOM FDMS),7,R,ugm-3 (TEOM FDMS),2,R,ugm-3 (TEOM FDMS)
09-01-2010,19:00,5,R,ugm-3 (TEOM FDMS),7,R,ugm-3 (TEOM FDMS),2,R,ugm-3 (TEOM FDMS)
09-01-2010,20:00,5,R,ugm-3 (TEOM FDMS),8,R,ugm-3 (TEOM FDMS),3,R,ugm-3 (TEOM FDMS)
09-01-2010,21:00,5,R,ugm-3 (TEOM FDMS),7,R,ugm-3 (TEOM FDMS),2,R,ugm-3 (TEOM FDMS)
09-01-2010,22:00,6,R,ugm-3 (TEOM FDMS),7,R,ugm-3 (TEOM FDMS),1,R,ugm-3 (TEOM FDMS)
09-01-2010,23:00,5,R,ugm-3 (TEOM FDMS),6,R,ugm-3 (TEOM FDMS),1,R,ugm-3 (TEOM FDMS)
09-01-2010,24:00,6,R,ugm-3 (TEOM FDMS),8,R,ugm-3 (TEOM FDMS),2,R,ugm-3 (TEOM FDMS)
10-01-2010,01:00,6,R,ugm-3 (TEOM FDMS),7,R,ugm-3 (TEOM FDMS),1,R,ugm-3 (TEOM FDMS)
10-01-2010,02:00,7,R,ugm-3 (TEOM FDMS),9,R,ugm-3 (TEOM FDMS),2,R,ugm-3 (TEOM FDMS)
10-01-2010,03:00,7,R,ugm-3 (TEOM FDMS),9,R,ugm-3 (TEOM FDMS),2,R,ugm-3 (TEOM FDMS)
10-01-2010,04:00,6,R,ugm-3 (TEOM FDMS),8,R,ugm-3 (TEOM FDMS),2,R,ugm-3 (TEOM FDMS)
10-01-2010,05:00,5,R,ugm-3 (TEOM FDMS),6,R,ugm-3 (TEOM FDMS),1,R,ugm-3 (TEOM FDMS)
10-01-2010,06:00,5,R,ugm-3 (TEOM FDMS),7,R,ugm-3 (TEOM FDMS),2,R,ugm-3 (TEOM FDMS)
10-01-2010,07:00,3,R,ugm-3 (TEOM FDMS),5,R,ugm-3 (TEOM FDMS),2,R,ugm-3 (TEOM FDMS)
10-01-2010,08:00,4,R,ugm-3 (TEOM FDMS),5,R,ugm-3 (TEOM FDMS),1,R,ugm-3 (TEOM FDMS)
10-01-2010,09:00,4,R,ugm-3 (TEOM FDMS),4,R,ugm-3 (TEOM FDMS),0,R,ugm-3 (TEOM FDMS)
10-01-2010,10:00,3,R,ugm-3 (TEOM FDMS),4,R,ugm-3 (TEOM FDMS),1,R,ugm-3 (TEOM FDMS)
10-01-2010,11:00,4,R,ugm-3 (TEOM FDMS),5,R,ugm-3 (TEOM FDMS),1,R,ugm-3 (TEOM FDMS)
10-01-2010,12:00,3,R,ugm-3 (TEOM FDMS),6,R,ugm-3 (TEOM FDMS),3,R,ugm-3 (TEOM FDMS)
10-01-2010,13:00,3,R,ugm-3 (TEOM FDMS),6,R,ugm-3 (TEOM FDMS),3,R,ugm-3 (TEOM FDMS)
10-01-2010,14:00,3,R,ugm-3 (TEOM FDMS),5,R,ugm-3 (TEOM FDMS),2,R,ugm-3 (TEOM FDMS)
10-01-2010,15:00,4,R,ugm-3 (TEOM FDMS),6,R,ugm-3 (TEOM FDMS),2,R,ugm-3 (TEOM FDMS)
10-01-2010,16:00,5,R,ugm-3 (TEOM FDMS),6,R,ugm-3 (TEOM FDMS),1,R,ugm-3 (TEOM FDMS)
10-01-2010,17:00,5,R,ugm-3 (TEOM FDMS),5,R,ugm-3 (TEOM FDMS),0,R,ugm-3 (TEOM FDMS)
10-01-2010,18:00,5,R,ugm-3 (TEOM FDMS),5,R,ugm-3 (TEOM FDMS),0,R,ugm-3 (TEOM FDMS)
10-01-2010,19:00,7,R,ugm-3 (TEOM FDMS),8,R,ugm-3 (TEOM FDMS),1,R,ugm-3 (TEOM FDMS)
10-01-2010,20:00,5,R,ugm-3 (TEOM FDMS),6,R,ugm-3 (TEOM FDMS),1,R,ugm-3 (TEOM FDMS)
10-01-2010,21:00,6,R,ugm-3 (TEOM FDMS),7,R,ugm-3 (TEOM FDMS),1,R,ugm-3 (TEOM FDMS)
10-01-2010,22:00,7,R,ugm-3 (TEOM FDMS),9,R,ugm-3 (TEOM FDMS),2,R,ugm-3 (TEOM FDMS)
10-01-2010,23:00,6,R,ugm-3 (TEOM FDMS),8,R,ugm-3 (TEOM FDMS),2,R,ugm-3 (TEOM FDMS)
10-01-2010,24:00,7,R,ugm-3 (TEOM FDMS),9,R,ugm-3 (TEOM FDMS),2,R,ugm-3 (TEOM FDMS)
11-01-2010,01:00,5,R,ugm-3 (TEOM FDMS),8,R,ugm-3 (TEOM FDMS),3,R,ugm-3 (TEOM FDMS)
11-01-2010,02:00,4,R,ugm-3 (TEOM FDMS),6,R,ugm-3 (TEOM FDMS),2,R,ugm-3 (TEOM FDMS)
11-01-2010,03:00,5,R,ugm-3 (TEOM FDMS),7,R,ugm-3 (TEOM FDMS),2,R,ugm-3 (TEOM FDMS)
11-01-2010,04:00,12,R,ugm-3 (TEOM FDMS),15,R,ugm-3 (TEOM FDMS),3,R,ugm-3 (TEOM FDMS)
11-01-2010,05:00,15,R,ugm-3 (TEOM FDMS),18,R,ugm-3 (TEOM FDMS),3,R,ugm-3 (TEOM FDMS)
11-01-2010,06:00,17,R,ugm-3 (TEOM FDMS),19,R,ugm-3 (TEOM FDMS),2,R,ugm-3 (TEOM FDMS)
11-01-2010,07:00,18,R,ugm-3 (TEOM FDMS),22,R,ugm-3 (TEOM FDMS),4,R,ugm-3 (TEOM FDMS)
11-01-2010,08:00,22,R,ugm-3 (TEOM FDMS),27,R,ugm-3 (TEOM FDMS),5,R,ugm-3 (TEOM FDMS)
11-01-2010,09:00,25,R,ugm-3 (TEOM FDMS),31,R,ugm-3 (TEOM FDMS),6,R,ugm-3 (TEOM FDMS)
11-01-2010,10:00,29,R,ugm-3 (TEOM FDMS),35,R,ugm-3 (TEOM FDMS),6,R,ugm-3 (TEOM FDMS)
11-01-2010,11:00,32,R,ugm-3 (TEOM FDMS),38,R,ugm-3 (TEOM FDMS),6,R,ugm-3 (TEOM FDMS)
11-01-2010,12:00,33,R,ugm-3 (TEOM FDMS),41,R,ugm-3 (TEOM FDMS),8,R,ugm-3 (TEOM FDMS)
11-01-2010,13:00,35,R,ugm-3 (TEOM FDMS),43,R,ugm-3 (TEOM FDMS),8,R,ugm-3 (TEOM FDMS)
11-01-2010,14:00,,,,,,,,,
11-01-2010,15:00,,,,,,,,,
11-01-2010,16:00,,,,,,,,,
11-01-2010,17:00,,,,,,,,,
11-01-2010,18:00,32,R,ugm-3 (TEOM FDMS),39,R,ugm-3 (TEOM FDMS),7,R,ugm-3 (TEOM FDMS)
11-01-2010,19:00,22,R,ugm-3 (TEOM FDMS),30,R,ugm-3 (TEOM FDMS),8,R,ugm-3 (TEOM FDMS)
11-01-2010,20:00,22,R,ugm-3 (TEOM FDMS),29,R,ugm-3 (TEOM FDMS),7,R,ugm-3 (TEOM FDMS)
11-01-2010,21:00,24,R,ugm-3 (TEOM FDMS),31,R,ugm-3 (TEOM FDMS),7,R,ugm-3 (TEOM FDMS)
11-01-2010,22:00,23,R,ugm-3 (TEOM FDMS),32,R,ugm-3 (TEOM FDMS),9,R,ugm-3 (TEOM FDMS)
11-01-2010,23:00,23,R,ugm-3 (TEOM FDMS),30,R,ugm-3 (TEOM FDMS),7,R,ugm-3 (TEOM FDMS)
11-01-2010,24:00,21,R,ugm-3 (TEOM FDMS),29,R,ugm-3 (TEOM FDMS),8,R,ugm-3 (TEOM FDMS)
12-01-2010,01:00,20,R,ugm-3 (TEOM FDMS),29,R,ugm-3 (TEOM FDMS),9,R,ugm-3 (TEOM FDMS)
12-01-2010,02:00,21,R,ugm-3 (TEOM FDMS),29,R,ugm-3 (TEOM FDMS),8,R,ugm-3 (TEOM FDMS)
12-01-2010,03:00,21,R,ugm-3 (TEOM FDMS),30,R,ugm-3 (TEOM FDMS),9,R,ugm-3 (TEOM FDMS)
12-01-2010,04:00,23,R,ugm-3 (TEOM FDMS),31,R,ugm-3 (TEOM FDMS),8,R,ugm-3 (TEOM FDMS)
12-01-2010,05:00,22,R,ugm-3 (TEOM FDMS),31,R,ugm-3 (TEOM FDMS),9,R,ugm-3 (TEOM FDMS)
12-01-2010,06:00,24,R,ugm-3 (TEOM FDMS),34,R,ugm-3 (TEOM FDMS),10,R,ugm-3 (TEOM FDMS)
12-01-2010,07:00,29,R,ugm-3 (TEOM FDMS),40,R,ugm-3 (TEOM FDMS),11,R,ugm-3 (TEOM FDMS)
12-01-2010,08:00,24,R,ugm-3 (TEOM FDMS),34,R,ugm-3 (TEOM FDMS),10,R,ugm-3 (TEOM FDMS)
12-01-2010,09:00,30,R,ugm-3 (TEOM FDMS),40,R,ugm-3 (TEOM FDMS),10,R,ugm-3 (TEOM FDMS)
12-01-2010,10:00,28,R,ugm-3 (TEOM FDMS),39,R,ugm-3 (TEOM FDMS),11,R,ugm-3 (TEOM FDMS)
12-01-2010,11:00,28,R,ugm-3 (TEOM FDMS),39,R,ugm-3 (TEOM FDMS),11,R,ugm-3 (TEOM FDMS)
12-01-2010,12:00,34,R,ugm-3 (TEOM FDMS),44,R,ugm-3 (TEOM FDMS),10,R,ugm-3 (TEOM FDMS)
12-01-2010,13:00,32,R,ugm-3 (TEOM FDMS),41,R,ugm-3 (TEOM FDMS),9,R,ugm-3 (TEOM FDMS)
12-01-2010,14:00,31,R,ugm-3 (TEOM FDMS),42,R,ugm-3 (TEOM FDMS),11,R,ugm-3 (TEOM FDMS)
12-01-2010,15:00,34,R,ugm-3 (TEOM FDMS),42,R,ugm-3 (TEOM FDMS),8,R,ugm-3 (TEOM FDMS)
12-01-2010,16:00,38,R,ugm-3 (TEOM FDMS),47,R,ugm-3 (TEOM FDMS),9,R,ugm-3 (TEOM FDMS)
12-01-2010,17:00,39,R,ugm-3 (TEOM FDMS),48,R,ugm-3 (TEOM FDMS),9,R,ugm-3 (TEOM FDMS)
12-01-2010,18:00,36,R,ugm-3 (TEOM FDMS),47,R,ugm-3 (TEOM FDMS),11,R,ugm-3 (TEOM FDMS)
12-01-2010,19:00,28,R,ugm-3 (TEOM FDMS),37,R,ugm-3 (TEOM FDMS),9,R,ugm-3 (TEOM FDMS)